Location: Grantsboro
(35.1404°N, 76.8424°W)
Time: 09:27:01
(UTC+00:00)

Cosmos 2082 - Pass Details

Date: 18 January 2020
Orbit: 833 x 856 km, 71.0° (Epoch: 25 February)

Event Time Altitude Azimuth Distance (km) Brightness Sun altitude
Exits shadow 10:54:22 11° 333° (NNW) 2,403 5.7 -16.3°
Maximum altitude 10:59:49 69° 252° (WSW) 908 3.7 -15.2°
Drops below altitude 10° 11:05:28 10° 170° (S) 2,474 6.5 -14.1°
Sets 11:07:55 0° 167° (SSE) 3,408 7.3 -13.6°
